[[{"header":{"parameterUnit":"m.s-1","parameterCategory":2,"la1":30.2991,"la2":30.254,"lo1":-89.0895,"lo2":-89.0444,"dy":0.0017,"dx":0.0017,"nx":28,"ny":28,"refTime":"2024-10-06T09:00:00:Z","depth":"0","parameterNumber":2,"parameterNumberName":"U-component_of_CURRENTS"},"data":[0,0,0,0,0,0,0,0,0,0,0,0,0,0,0,0,0,0,0,0,0,0,0,0,0,0,0,0,0,0,0,0,0,0,0,0,0,0,0,0,0,0,0,0,0,0,0,0,0,0,0,0,0,0,0,0,0,0,0.2542,0.2543,0,0.2571,0.2571,0.2571,0.2572,0.2572,0.2572,0.2572,0.2557,0.2557,0.2557,0,0,0,0,0,0,0,0,0,0,0,0,0,0.248,0.2481,0.2542,0.2543,0.2544,0.2571,0.2571,0.2571,0.2572,0.2572,0.2572,0.2572,0.2558,0.2557,0.2557,0,0,0,0,0,0,0,0,0,0,0,0,0,0.2505,0.2481,0.2542,0.255,0.2551,0.2571,0.2571,0.2571,0.2572,0.2572,0.2572,0.2572,0.2558,0.2557,0.2557,0.2556,0,0,0.2555,0.2555,0,0,0,0,0,0,0,0,0.2504,0.2507,0.2548,0.2549,0.255,0.2571,0.2544,0.2565,0.2572,0.2561,0.2572,0.2572,0.256,0.2559,0.2561,0.2556,0.2555,0.2555,0.2555,0.2555,0.2555,0,0,0,0,0,0,0,0.2502,0.2506,0.2551,0.2549,0.255,0.2549,0.2552,0.2548,0.2558,0.2562,0.2563,0.2571,0.256,0.2562,0.2561,0.2555,0.2555,0.2555,0.2554,0.2554,0.2586,0.2587,0,0,0,0,0,0,0.2505,0.2504,0.255,0.2552,0.253,0.255,0.2554,0.2562,0.2559,0.2559,0.2571,0.2571,0.2563,0.2561,0.256,0.2589,0.2555,0.2554,0.2554,0.2585,0.2586,0.2587,0,0,0,0,0,0,0.2503,0.2509,0.2549,0.2531,0.2536,0.2552,0.2561,0.2563,0.2569,0.2566,0.2566,0.2577,0.2563,0.2561,0.2568,0.2588,0.2554,0.2554,0.2584,0.2585,0.2587,0.2628,0,0,0,0,0,0,0.2502,0.2508,0.2512,0.2531,0.2538,0.2565,0.2561,0.2563,0.2575,0.2575,0.2571,0.2569,0.2562,0.2569,0.2568,0.2586,0.2553,0.2582,0.2584,0.2586,0.2625,0.2631,0.2636,0,0,0,0,0,0.2499,0.2502,0.2512,0.2518,0.2544,0.2566,0.2569,0.2577,0.2576,0.2582,0.2583,0.257,0.2582,0.2569,0.2567,0.2586,0.2581,0.2584,0.2586,0.2623,0.263,0.2636,0,0,0,0,0,0,0.2469,0.2504,0.2515,0.2526,0.2549,0.2568,0.2573,0.2581,0.2587,0.2586,0.2579,0.2578,0.2595,0.2585,0.2571,0.2604,0.2581,0.2583,0.261,0.2616,0.2621,0.2642,0.2553,0,0,0,0,0,0.2469,0.2484,0.2516,0.2524,0.2538,0.2557,0.2566,0.2576,0.2587,0.2589,0.2588,0.2591,0.2604,0.2604,0.261,0.2619,0.2645,0.2633,0.2638,0.2643,0.266,0.2718,0.273,0.2596,0.2596,0.2596,0,0,0.2457,0.248,0.2486,0.252,0.2537,0.2562,0.2562,0.258,0.2602,0.2586,0.2604,0.2608,0.2612,0.2632,0.2638,0.2624,0.2696,0.2646,0.265,0.2664,0.2722,0.2735,0.2747,0.2597,0.2597,0.2597,0,0,0.2449,0.2467,0.2482,0.2508,0.2544,0.2561,0.2569,0.2594,0.2607,0.2626,0.263,0.265,0.265,0.2671,0.2678,0.2715,0.2725,0.2711,0.275,0.2806,0.2818,0.2829,0.2883,0.2898,0.271,0.271,0.271,0,0.2435,0.2465,0.2488,0.2516,0.2542,0.2563,0.2591,0.2608,0.2631,0.2656,0.2636,0.2684,0.2676,0.273,0.274,0.2729,0.2762,0.2723,0.2814,0.2825,0.2836,0.2889,0.2905,0.2712,0.2712,0.2712,0.2712,0,0.2449,0.2475,0.2486,0.2534,0.2561,0.2587,0.2626,0.2651,0.2665,0.2689,0.274,0.2741,0.2777,0.2774,0.2763,0.2837,0.2838,0.2817,0.2799,0.2852,0.2904,0.2921,0.2716,0.2715,0.2714,0.2714,0,0,0.2412,0.2483,0.2487,0.252,0.2578,0.2601,0.2649,0.2707,0.2752,0.2769,0.2833,0.2849,0.2862,0.2874,0.2873,0.2909,0.2999,0.2893,0.2895,0.2949,0.3134,0.3102,0.3117,0.2996,0.2999,0.3001,0.3143,0,0.2419,0.2473,0.2509,0.256,0.2596,0.2646,0.2692,0.2747,0.279,0.2852,0.2883,0.2932,0.2898,0.2922,0.2959,0.2997,0.3043,0.2963,0.3073,0.3077,0.3044,0.3135,0.3062,0.3179,0.3159,0.3162,0.3164,0,0.2422,0.2465,0.2514,0.2597,0.2617,0.2646,0.2743,0.2788,0.2885,0.2925,0.2991,0.3021,0.3098,0.3047,0.3158,0.3111,0.3131,0.3147,0.3153,0.3123,0.3076,0.3122,0.3209,0.3166,0.3189,0.3187,0.3185,0,0.2392,0.2468,0.2508,0.2534,0.2625,0.2659,0.2708,0.2804,0.2875,0.2978,0.305,0.313,0.3193,0.3235,0.3274,0.3229,0.3391,0.3331,0.3328,0.3325,0.3285,0.3274,0.3345,0.3415,0.3414,0.3414,0.3414,0,0.2388,0.2419,0.2493,0.2515,0.2574,0.2641,0.2721,0.2787,0.2914,0.2998,0.3082,0.3168,0.3245,0.3339,0.334,0.3406,0.3454,0.3369,0.3373,0.3296,0.3285,0.326,0.3226,0.3419,0.3418,0.3417,0.3416,0,0.2342,0.2392,0.244,0.2528,0.2557,0.2593,0.2726,0.2788,0.2916,0.3036,0.3081,0.3247,0.3357,0.3435,0.3525,0.3506,0.3473,0.3554,0.346,0.3449,0.336,0.3331,0.3267,0.3154,0.3575,0.3575,0.3575,0,0.2323,0.2343,0.2427,0.2453,0.2486,0.2562,0.2616,0.276,0.2838,0.3061,0.3112,0.3293,0.339,0.3554,0.3569,0.3623,0.3495,0.356,0.3445,0.3381,0.3352,0.3188,0.3083,0.3417,0.3416,0.3415,0.3414,0,0.2286,0.2308,0.2347,0.2402,0.2447,0.2513,0.2603,0.2677,0.2839,0.2956,0.3102,0.3213,0.3416,0.3463,0.357,0.3569,0.3412,0.354,0.351,0.3277,0.307,0.2953,0.3297,0.3406,0.3407,0.3407,0.3408,0.3408,0.2244,0.2255,0.2299,0.2341,0.2393,0.2432,0.2455,0.2566,0.2673,0.2818,0.298,0.3109,0.3318,0.3464,0.3454,0.3441,0.3351,0.3354,0.3342,0.3194,0.3022,0.3347,0.3424,0.3425,0.3426,0.3426,0.3427,0,0.218,0.2202,0.2242,0.2278,0.2288,0.2343,0.2419,0.2425,0.2481,0.2666,0.278,0.2996,0.3123,0.3268,0.3382,0.3293,0.3095,0.3206,0.2981,0.2896,0.3252,0.3184,0.3168,0.3168,0.3168,0.3168,0.3168,0.3168,0.2148,0.2148,0.2167,0.2154,0.2175,0.215,0.2158,0.2187,0.2293,0.2419,0.2556,0.2715,0.3079,0.3314,0.332,0.3223,0.2965,0.2846,0.2781,0.3092,0.3104,0.3115,0.3045,0.3,0.3,0.2304,0.23,0.2296]},{"header":{"parameterUnit":"m.s-1","parameterCategory":2,"la1":30.2991,"la2":30.254,"lo1":-89.0895,"lo2":-89.0444,"dy":0.0017,"dx":0.0017,"nx":28,"ny":28,"refTime":"2024-10-06T09:00:00:Z","depth":"0","parameterNumber":3,"parameterNumberName":"V-component_of_CURRENTS"},"data":[0,0,0,0,0,0,0,0,0,0,0,0,0,0,0,0,0,0,0,0,0,0,0,0,0,0,0,0,0,0,0,0,0,0,0,0,0,0,0,0,0,0,0,0,0,0,0,0,0,0,0,0,0,0,0,0,0,0,-0.022,-0.0221,0,-0.0283,-0.0283,-0.0284,-0.0328,-0.0328,-0.0328,-0.0328,-0.0398,-0.04,-0.0402,0,0,0,0,0,0,0,0,0,0,0,0,0,-0.0182,-0.0182,-0.022,-0.0221,-0.0221,-0.0282,-0.0283,-0.0284,-0.0328,-0.0328,-0.0328,-0.0328,-0.0398,-0.04,-0.0402,0,0,0,0,0,0,0,0,0,0,0,0,0,-0.0218,-0.0182,-0.022,-0.0249,-0.0252,-0.0282,-0.0284,-0.0285,-0.0328,-0.0328,-0.0328,-0.0328,-0.0397,-0.04,-0.0402,-0.0412,0,0,-0.041,-0.0411,0,0,0,0,0,0,0,0,-0.0216,-0.022,-0.0244,-0.0247,-0.0251,-0.0296,-0.0296,-0.0327,-0.0327,-0.0301,-0.0328,-0.0328,-0.0364,-0.0369,-0.0382,-0.0416,-0.0419,-0.041,-0.0412,-0.0413,-0.0413,0,0,0,0,0,0,0,-0.0213,-0.0218,-0.0246,-0.0245,-0.0249,-0.0274,-0.0279,-0.0302,-0.0331,-0.0303,-0.0306,-0.031,-0.0366,-0.038,-0.0384,-0.042,-0.041,-0.0412,-0.0414,-0.0415,-0.0463,-0.0463,0,0,0,0,0,0,-0.02,-0.0215,-0.0244,-0.0248,-0.0232,-0.0274,-0.028,-0.0283,-0.0331,-0.0338,-0.031,-0.0312,-0.0375,-0.0381,-0.0387,-0.039,-0.0413,-0.0415,-0.0417,-0.0463,-0.0463,-0.0463,0,0,0,0,0,0,-0.0199,-0.0202,-0.0242,-0.0232,-0.0239,-0.0274,-0.0277,-0.0284,-0.0294,-0.0336,-0.0343,-0.0313,-0.0376,-0.0383,-0.0401,-0.0393,-0.0416,-0.0419,-0.0464,-0.0463,-0.0463,-0.0403,0,0,0,0,0,0,-0.0197,-0.0201,-0.0198,-0.0231,-0.0238,-0.0249,-0.0277,-0.0285,-0.0296,-0.0299,-0.0341,-0.0348,-0.0376,-0.0397,-0.0404,-0.0397,-0.0421,-0.0464,-0.0463,-0.0463,-0.0405,-0.04,-0.0396,0,0,0,0,0,-0.0196,-0.0183,-0.0197,-0.0201,-0.0233,-0.0248,-0.0254,-0.0282,-0.0295,-0.0294,-0.0324,-0.0346,-0.0399,-0.0399,-0.0407,-0.04,-0.0464,-0.0464,-0.0463,-0.0407,-0.0401,-0.0397,0,0,0,0,0,0,-0.016,-0.0187,-0.0203,-0.0199,-0.0219,-0.0255,-0.0254,-0.0275,-0.0299,-0.0301,-0.0343,-0.0352,-0.0365,-0.0391,-0.0389,-0.0414,-0.0436,-0.0436,-0.039,-0.0385,-0.0381,-0.0368,-0.0423,0,0,0,0,0,-0.0151,-0.0152,-0.0182,-0.0178,-0.0185,-0.022,-0.0229,-0.0247,-0.0273,-0.0284,-0.0313,-0.0345,-0.037,-0.0382,-0.0409,-0.042,-0.045,-0.0422,-0.0417,-0.0413,-0.0408,-0.0454,-0.0453,-0.0461,-0.0461,-0.0461,0,0,-0.0137,-0.0151,-0.0152,-0.0171,-0.0189,-0.019,-0.0226,-0.0233,-0.0235,-0.0287,-0.0296,-0.0329,-0.037,-0.0384,-0.0392,-0.0403,-0.0425,-0.0413,-0.0409,-0.0406,-0.0453,-0.0453,-0.0452,-0.0461,-0.0461,-0.0461,0,0,-0.0102,-0.0119,-0.0108,-0.0121,-0.0141,-0.0162,-0.016,-0.0192,-0.0207,-0.0222,-0.026,-0.0287,-0.0324,-0.0353,-0.0372,-0.0359,-0.04,-0.0368,-0.0335,-0.0379,-0.0379,-0.0379,-0.0404,-0.0407,-0.0365,-0.0365,-0.0365,0,-0.0083,-0.0075,-0.0106,-0.0098,-0.0101,-0.0144,-0.013,-0.0152,-0.0186,-0.0196,-0.0215,-0.0277,-0.031,-0.0333,-0.033,-0.0349,-0.0376,-0.0349,-0.0373,-0.0374,-0.0375,-0.0401,-0.0405,-0.0362,-0.0362,-0.0363,-0.0363,0,-0.0044,-0.0038,-0.003,-0.0037,-0.0044,-0.0038,-0.007,-0.008,-0.0106,-0.0134,-0.0163,-0.0216,-0.0253,-0.0269,-0.0296,-0.0318,-0.0335,-0.0362,-0.0384,-0.0371,-0.0399,-0.0404,-0.0358,-0.0359,-0.036,-0.036,0,0,0.0003,-0.0002,0.0002,0.0011,-0.001,-0.0007,-0.0011,-0.0028,-0.0028,-0.0076,-0.0084,-0.014,-0.0177,-0.0201,-0.0244,-0.0283,-0.0313,-0.032,-0.0324,-0.034,-0.0399,-0.039,-0.0395,-0.0347,-0.0348,-0.0349,-0.041,0,0.0044,0.0076,0.0059,0.0091,0.0105,0.0069,0.0071,0.0048,0.0017,-0.0003,-0.007,-0.0094,-0.0149,-0.0164,-0.0213,-0.0287,-0.0326,-0.0292,-0.0414,-0.0417,-0.0407,-0.0401,-0.0378,-0.0429,-0.0416,-0.0417,-0.0418,0,0.0089,0.0105,0.0143,0.0156,0.0159,0.0167,0.0164,0.0158,0.0112,0.0086,0.0038,-0.0014,-0.0073,-0.0123,-0.0247,-0.0224,-0.0304,-0.0366,-0.037,-0.0387,-0.0418,-0.0444,-0.044,-0.0604,-0.0426,-0.0425,-0.0425,0,0.0142,0.0166,0.0201,0.0205,0.0208,0.0218,0.0214,0.0184,0.0197,0.0141,0.0146,0.0048,0.0022,-0.0104,-0.0225,-0.0242,-0.0358,-0.0402,-0.0468,-0.0468,-0.0484,-0.0484,-0.0649,-0.0491,-0.0491,-0.0491,-0.0491,0,0.0193,0.0223,0.0229,0.0249,0.0296,0.027,0.0307,0.0285,0.0272,0.03,0.0196,0.021,0.0025,-0.0058,-0.0198,-0.0335,-0.0341,-0.0458,-0.0485,-0.046,-0.0457,-0.0629,-0.0734,-0.0493,-0.0493,-0.0493,-0.0492,0,0.0247,0.0249,0.0293,0.0309,0.0324,0.0352,0.0387,0.0412,0.0383,0.0418,0.0411,0.0336,0.0229,0.0051,-0.0136,-0.0273,-0.052,-0.0471,-0.0416,-0.0436,-0.066,-0.0761,-0.0966,-0.1048,-0.0567,-0.0568,-0.0568,0,0.0276,0.0304,0.0349,0.0387,0.0398,0.0441,0.0477,0.0468,0.0509,0.0512,0.0547,0.0463,0.0436,0.0169,-0.0093,-0.0337,-0.0511,-0.0484,-0.0521,-0.0666,-0.0801,-0.0882,-0.0941,-0.0519,-0.0518,-0.0518,-0.0518,0,0.0335,0.0348,0.0387,0.0466,0.0515,0.0578,0.0632,0.0691,0.0691,0.0736,0.0787,0.0769,0.0519,0.0302,-0.0039,-0.0227,-0.061,-0.0487,-0.0665,-0.0796,-0.087,-0.0961,-0.0476,-0.0516,-0.0516,-0.0516,-0.0516,-0.0516,0.0383,0.0422,0.0476,0.0555,0.0618,0.0708,0.0778,0.0854,0.0949,0.103,0.0992,0.1006,0.0656,0.0206,-0.0077,-0.0572,-0.0604,-0.0723,-0.0837,-0.0908,-0.0983,-0.0477,-0.0531,-0.0532,-0.0532,-0.0532,-0.0532,0,0.0444,0.049,0.0565,0.0656,0.0738,0.0758,0.0881,0.0963,0.1102,0.1187,0.1241,0.11,0.0669,0.0198,-0.0461,-0.0839,-0.1002,-0.106,-0.1188,-0.1236,-0.0806,-0.0799,-0.0878,-0.0878,-0.0878,-0.0877,-0.0877,-0.0877,0.0478,0.056,0.0598,0.0744,0.0813,0.0932,0.101,0.1142,0.1241,0.1371,0.1406,0.1393,0.106,-0.0145,-0.098,-0.1202,-0.1498,-0.1562,-0.1714,-0.1435,-0.1413,-0.1391,-0.1409,-0.1615,-0.1616,-0.2082,-0.2087,-0.209]}],[{"header":{"parameterUnit":"m.s-1","parameterCategory":2,"la1":30.2991,"la2":30.254,"lo1":-89.0895,"lo2":-89.0444,"dy":0.0017,"dx":0.0017,"nx":28,"ny":28,"refTime":"2024-10-06T09:00:00:Z","depth":"2","parameterNumber":2,"parameterNumberName":"U-component_of_CURRENTS"},"data":[0,0,0,0,0,0,0,0,0,0,0,0,0,0,0,0,0,0,0,0,0,0,0,0,0,0,0,0,0,0,0,0,0,0,0,0,0,0,0,0,0,0,0,0,0,0,0,0,0,0,0,0,0,0,0,0,0,0,0.2455,0.2455,0,0.2485,0.2485,0.2485,0.2491,0.2491,0.2491,0.2491,0.2487,0.2486,0.2486,0,0,0,0,0,0,0,0,0,0,0,0,0,0.2394,0.2394,0.2454,0.2455,0.2456,0.2485,0.2485,0.2485,0.2491,0.2491,0.2491,0.2491,0.2487,0.2487,0.2486,0,0,0,0,0,0,0,0,0,0,0,0,0,0.2419,0.2395,0.2454,0.2464,0.2465,0.2485,0.2485,0.2485,0.2491,0.2491,0.2491,0.2491,0.2487,0.2487,0.2486,0.2485,0,0,0.2486,0.2486,0,0,0,0,0,0,0,0,0.2418,0.2421,0.2462,0.2463,0.2465,0.2486,0.2462,0.2484,0.2491,0.2478,0.2491,0.2491,0.2485,0.2485,0.2487,0.2485,0.2485,0.2486,0.2486,0.2486,0.2486,0,0,0,0,0,0,0,0.2416,0.242,0.2464,0.2463,0.2465,0.2464,0.2468,0.2466,0.2479,0.2479,0.2481,0.2488,0.2485,0.2488,0.2487,0.2485,0.2486,0.2486,0.2486,0.2485,0.2525,0.2526,0,0,0,0,0,0,0.2418,0.2418,0.2463,0.2465,0.2444,0.2466,0.2469,0.2477,0.2479,0.2481,0.2488,0.2488,0.2488,0.2487,0.2487,0.2522,0.2486,0.2485,0.2485,0.2524,0.2525,0.2527,0,0,0,0,0,0,0.2417,0.2422,0.2462,0.2444,0.245,0.2467,0.2476,0.2478,0.2488,0.2487,0.2487,0.2498,0.2488,0.2487,0.2499,0.252,0.2485,0.2485,0.2523,0.2524,0.2526,0.2568,0,0,0,0,0,0,0.2415,0.2421,0.2427,0.2444,0.2451,0.248,0.2476,0.2479,0.2494,0.2495,0.2495,0.2494,0.2488,0.25,0.2499,0.2519,0.2485,0.2521,0.2523,0.2526,0.2565,0.2571,0.2576,0,0,0,0,0,0.2412,0.2418,0.2428,0.2433,0.2459,0.2481,0.2484,0.2494,0.2494,0.2502,0.2506,0.2495,0.2513,0.25,0.2499,0.252,0.252,0.2523,0.2525,0.2563,0.257,0.2576,0,0,0,0,0,0,0.2388,0.242,0.2431,0.2444,0.2466,0.2483,0.2491,0.2499,0.2509,0.251,0.2505,0.2505,0.2526,0.2517,0.2503,0.254,0.2517,0.2519,0.2545,0.2552,0.2557,0.2575,0.2485,0,0,0,0,0,0.2389,0.2405,0.2434,0.2445,0.2458,0.2477,0.2487,0.2498,0.2509,0.2514,0.2515,0.2521,0.2535,0.2538,0.2545,0.2558,0.2579,0.2574,0.2579,0.2584,0.2599,0.2653,0.2665,0.2535,0.2535,0.2535,0,0,0.2381,0.2403,0.241,0.2442,0.2459,0.2482,0.2483,0.2503,0.2525,0.2511,0.2534,0.254,0.2545,0.2567,0.2575,0.2561,0.2632,0.2587,0.2591,0.2604,0.2657,0.267,0.2681,0.2537,0.2537,0.2536,0,0,0.2378,0.2397,0.2413,0.2437,0.2471,0.2487,0.2496,0.2521,0.2535,0.2557,0.2562,0.2584,0.2589,0.2608,0.2615,0.2654,0.2661,0.2653,0.2691,0.2743,0.2755,0.2765,0.281,0.2824,0.2652,0.2652,0.2653,0,0.2369,0.2397,0.2419,0.2446,0.247,0.2491,0.2518,0.2536,0.2561,0.2585,0.2569,0.2619,0.2614,0.2665,0.2677,0.2668,0.2697,0.2663,0.2751,0.2762,0.2772,0.2816,0.2831,0.2655,0.2655,0.2654,0.2654,0,0.2383,0.2409,0.2421,0.2467,0.2492,0.2518,0.2554,0.2581,0.2597,0.262,0.2672,0.2676,0.2713,0.2711,0.2702,0.2773,0.2772,0.2754,0.2735,0.2787,0.283,0.2845,0.2658,0.2657,0.2657,0.2656,0,0,0.2353,0.242,0.2424,0.2455,0.251,0.2531,0.2579,0.2633,0.2677,0.2698,0.2759,0.2779,0.2795,0.2806,0.2807,0.2841,0.2926,0.2828,0.283,0.2875,0.3048,0.3011,0.3023,0.2926,0.2929,0.2931,0.3051,0,0.2361,0.2411,0.2446,0.2494,0.2527,0.2575,0.2619,0.2672,0.2714,0.2775,0.2807,0.2857,0.2828,0.2854,0.2889,0.2926,0.2967,0.2895,0.299,0.2993,0.2955,0.3039,0.2795,0.2879,0.3065,0.3068,0.307,0,0.2365,0.2404,0.2451,0.2528,0.2547,0.2576,0.2667,0.2711,0.2804,0.2844,0.291,0.2941,0.3016,0.2971,0.3073,0.3033,0.3049,0.3062,0.3067,0.303,0.2984,0.2857,0.2899,0.3094,0.3092,0.309,0.3089,0,0.2336,0.2407,0.2445,0.247,0.2554,0.2589,0.2638,0.2729,0.2797,0.2898,0.2966,0.3043,0.3109,0.3145,0.3179,0.3141,0.3282,0.3232,0.3215,0.3212,0.3023,0.2999,0.3305,0.3305,0.3304,0.3304,0.3304,0,0.2332,0.2362,0.2432,0.2453,0.2509,0.2574,0.2651,0.2715,0.2838,0.2915,0.3,0.3078,0.3159,0.3242,0.3238,0.329,0.3339,0.3252,0.3253,0.303,0.3006,0.3198,0.3184,0.3309,0.3308,0.3307,0.3306,0,0.2289,0.2336,0.2382,0.2465,0.2494,0.253,0.2659,0.2718,0.2842,0.2954,0.3,0.3156,0.3254,0.3324,0.3403,0.3381,0.3414,0.3409,0.3144,0.3112,0.3291,0.3278,0.3418,0.3417,0.3417,0.3417,0.3417,0,0.2271,0.229,0.237,0.2396,0.243,0.2503,0.2555,0.2695,0.2767,0.2974,0.3021,0.319,0.3266,0.3406,0.3398,0.3432,0.3442,0.3212,0.309,0.3323,0.331,0.3296,0.3284,0.2854,0.2849,0.2846,0.2843,0,0.2235,0.2259,0.2295,0.2348,0.2394,0.2454,0.2541,0.2608,0.2762,0.2868,0.2995,0.3087,0.3249,0.319,0.327,0.3234,0.3188,0.3137,0.347,0.2865,0.2802,0.2785,0.2789,0.2809,0.2812,0.2815,0.2816,0.2818,0.2198,0.2207,0.2251,0.2291,0.2341,0.2374,0.2393,0.2492,0.2585,0.2696,0.2845,0.2889,0.2978,0.2976,0.2911,0.2869,0.3073,0.2917,0.2924,0.2936,0.2852,0.2792,0.2782,0.2785,0.2787,0.279,0.2792,0,0.2135,0.2157,0.2195,0.2229,0.2235,0.2293,0.2358,0.2344,0.2379,0.25,0.2581,0.2435,0.2451,0.2521,0.2429,0.247,0.2398,0.235,0.2218,0.2257,0.2291,0.2166,0.1918,0.1914,0.1911,0.1908,0,0,0.2104,0.2102,0.2118,0.2103,0.2126,0.2095,0.2097,0.2087,0.2136,0.2118,0.2125,0.2321,0.2457,0.2131,0.213,0.2,0.2094,0.1925,0.2639,0.2523,0.2551,0.265,0.2509,0,0,0,0,0]},{"header":{"parameterUnit":"m.s-1","parameterCategory":2,"la1":30.2991,"la2":30.254,"lo1":-89.0895,"lo2":-89.0444,"dy":0.0017,"dx":0.0017,"nx":28,"ny":28,"refTime":"2024-10-06T09:00:00:Z","depth":"2","parameterNumber":3,"parameterNumberName":"V-component_of_CURRENTS"},"data":[0,0,0,0,0,0,0,0,0,0,0,0,0,0,0,0,0,0,0,0,0,0,0,0,0,0,0,0,0,0,0,0,0,0,0,0,0,0,0,0,0,0,0,0,0,0,0,0,0,0,0,0,0,0,0,0,0,0,-0.0082,-0.0083,0,-0.0145,-0.0145,-0.0146,-0.019,-0.019,-0.019,-0.019,-0.0262,-0.0263,-0.0265,0,0,0,0,0,0,0,0,0,0,0,0,0,-0.0042,-0.0043,-0.0082,-0.0083,-0.0084,-0.0145,-0.0146,-0.0147,-0.019,-0.019,-0.019,-0.0191,-0.0261,-0.0263,-0.0265,0,0,0,0,0,0,0,0,0,0,0,0,0,-0.0079,-0.0043,-0.0082,-0.0112,-0.0115,-0.0144,-0.0146,-0.0147,-0.019,-0.019,-0.019,-0.0191,-0.026,-0.0263,-0.0265,-0.0275,0,0,-0.0273,-0.0274,0,0,0,0,0,0,0,0,-0.0077,-0.008,-0.0107,-0.011,-0.0113,-0.0159,-0.0157,-0.019,-0.019,-0.0163,-0.019,-0.0191,-0.0227,-0.0232,-0.0245,-0.0278,-0.0281,-0.0273,-0.0275,-0.0276,-0.0277,0,0,0,0,0,0,0,-0.0074,-0.0078,-0.0108,-0.0107,-0.0111,-0.0136,-0.0141,-0.0164,-0.0193,-0.0165,-0.0168,-0.0173,-0.0229,-0.0242,-0.0247,-0.0282,-0.0273,-0.0276,-0.0277,-0.0278,-0.0329,-0.0328,0,0,0,0,0,0,-0.0061,-0.0075,-0.0106,-0.011,-0.0094,-0.0136,-0.0142,-0.0145,-0.0193,-0.02,-0.0172,-0.0174,-0.0238,-0.0244,-0.025,-0.0255,-0.0276,-0.0278,-0.028,-0.0329,-0.0329,-0.0328,0,0,0,0,0,0,-0.006,-0.0063,-0.0104,-0.0093,-0.01,-0.0136,-0.0139,-0.0146,-0.0159,-0.0198,-0.0206,-0.0178,-0.0238,-0.0246,-0.0266,-0.0258,-0.0279,-0.0282,-0.0329,-0.0329,-0.0328,-0.0271,0,0,0,0,0,0,-0.0058,-0.0062,-0.0061,-0.0092,-0.01,-0.0113,-0.0139,-0.0147,-0.016,-0.0164,-0.0205,-0.0213,-0.0239,-0.0262,-0.0268,-0.0262,-0.0284,-0.0329,-0.0329,-0.0329,-0.0273,-0.0269,-0.0265,0,0,0,0,0,-0.0057,-0.0047,-0.006,-0.0064,-0.0096,-0.0112,-0.0118,-0.0146,-0.016,-0.016,-0.019,-0.0211,-0.0264,-0.0263,-0.0271,-0.0266,-0.0329,-0.0329,-0.0329,-0.0275,-0.027,-0.0265,0,0,0,0,0,0,-0.0027,-0.0052,-0.0066,-0.0065,-0.0085,-0.0119,-0.0121,-0.0142,-0.0166,-0.0169,-0.0209,-0.0217,-0.0233,-0.0257,-0.0255,-0.028,-0.0301,-0.0302,-0.0257,-0.0253,-0.0249,-0.0233,-0.0286,0,0,0,0,0,-0.0019,-0.002,-0.0049,-0.0047,-0.0054,-0.0088,-0.0098,-0.0116,-0.0142,-0.0153,-0.0183,-0.0213,-0.0237,-0.025,-0.0276,-0.0287,-0.0314,-0.029,-0.0286,-0.0282,-0.0275,-0.0315,-0.0313,-0.0327,-0.0327,-0.0327,0,0,-0.0008,-0.0021,-0.0022,-0.0041,-0.006,-0.006,-0.0095,-0.0104,-0.0105,-0.0156,-0.0166,-0.02,-0.0238,-0.0252,-0.0261,-0.0271,-0.0291,-0.0282,-0.0278,-0.0273,-0.0314,-0.0313,-0.0312,-0.0327,-0.0327,-0.0327,0,0,0.0022,0.0005,0.0015,0.0003,-0.0018,-0.0037,-0.0036,-0.0068,-0.0083,-0.0099,-0.0134,-0.0161,-0.0199,-0.0224,-0.0241,-0.023,-0.0269,-0.0241,-0.0207,-0.0245,-0.0244,-0.0244,-0.0268,-0.0271,-0.0238,-0.0238,-0.0238,0,0.0038,0.0046,0.0016,0.0023,0.0021,-0.0021,-0.0007,-0.0029,-0.0063,-0.007,-0.0093,-0.0151,-0.0185,-0.0202,-0.0201,-0.022,-0.0246,-0.0221,-0.0239,-0.024,-0.024,-0.0266,-0.0269,-0.0235,-0.0236,-0.0236,-0.0236,0,0.0073,0.0079,0.0086,0.0081,0.0075,0.0079,0.0051,0.0041,0.0014,-0.0011,-0.0038,-0.009,-0.0124,-0.0142,-0.0169,-0.0187,-0.0204,-0.0229,-0.0249,-0.0235,-0.0263,-0.0267,-0.0231,-0.0232,-0.0233,-0.0234,0,0,0.0113,0.0112,0.0115,0.0127,0.0107,0.0111,0.0109,0.0097,0.0101,0.0051,0.0048,-0.0009,-0.0045,-0.0068,-0.0111,-0.0146,-0.0174,-0.0185,-0.0189,-0.0204,-0.0251,-0.0255,-0.026,-0.0206,-0.0207,-0.0207,-0.0266,0,0.0151,0.0184,0.017,0.0204,0.022,0.0187,0.0192,0.0174,0.0146,0.0131,0.0066,0.0043,-0.0015,-0.0031,-0.0077,-0.0148,-0.0184,-0.0155,-0.0267,-0.027,-0.027,-0.0265,-0.0231,-0.028,-0.027,-0.0271,-0.0272,0,0.0194,0.0212,0.0251,0.0272,0.0276,0.0284,0.029,0.0288,0.025,0.0227,0.0182,0.013,0.0073,0.0019,-0.0098,-0.0078,-0.0157,-0.0218,-0.0222,-0.0248,-0.0282,-0.0295,-0.0289,-0.028,-0.0279,-0.0278,-0.0278,0,0.0244,0.0272,0.0309,0.0314,0.0324,0.0335,0.0335,0.0314,0.0332,0.0283,0.0288,0.0198,0.0168,0.005,-0.0075,-0.0092,-0.0202,-0.0242,-0.0319,-0.032,-0.0323,-0.0323,-0.0325,-0.0325,-0.0325,-0.0325,-0.0325,0,0.0294,0.0326,0.0335,0.0356,0.0407,0.0386,0.0429,0.0413,0.0408,0.044,0.0339,0.0352,0.0174,0.0092,-0.0045,-0.0185,-0.0182,-0.0308,-0.0336,-0.0301,-0.0299,-0.0327,-0.0326,-0.0327,-0.0327,-0.0326,-0.0326,0,0.0345,0.0348,0.0396,0.0417,0.0432,0.0463,0.0503,0.0534,0.0511,0.055,0.0542,0.0471,0.036,0.0187,0.0006,-0.0125,-0.0272,-0.0323,-0.0262,-0.0282,-0.0374,-0.037,-0.0423,-0.0424,-0.0424,-0.0425,-0.0425,0,0.0373,0.0402,0.0449,0.0487,0.05,0.0545,0.0584,0.0584,0.0631,0.0637,0.0674,0.0584,0.0548,0.0284,0.0032,-0.0207,-0.0249,-0.0338,-0.0371,-0.0363,-0.0385,-0.038,-0.0375,-0.0352,-0.0352,-0.0352,-0.0352,0,0.0431,0.0443,0.0484,0.0562,0.0612,0.0679,0.0737,0.0797,0.0807,0.0847,0.0891,0.0862,0.0614,0.0389,0.0054,-0.0112,-0.0304,-0.0342,-0.0352,-0.0329,-0.03,-0.032,-0.0317,-0.035,-0.035,-0.035,-0.035,-0.035,0.0476,0.0515,0.0569,0.0647,0.0711,0.0802,0.0872,0.0947,0.1038,0.1101,0.1065,0.1023,0.0751,0.0339,0.0046,-0.0278,-0.0273,-0.039,-0.0389,-0.0389,-0.0366,-0.034,-0.0392,-0.0392,-0.0393,-0.0393,-0.0393,0,0.0535,0.0579,0.0654,0.0744,0.0826,0.0847,0.0972,0.1046,0.1169,0.121,0.124,0.0999,0.0739,0.0413,-0.0053,-0.0329,-0.0359,-0.0423,-0.0395,-0.0394,-0.0394,-0.0371,-0.0399,-0.04,-0.0401,-0.0402,0,0,0.0567,0.0647,0.0685,0.0826,0.0893,0.1009,0.1086,0.1196,0.1259,0.1316,0.129,0.1227,0.084,0.0508,0.0133,-0.0137,-0.0209,-0.0195,-0.0159,-0.0081,-0.0078,-0.0341,-0.0301,0,0,0,0,0]}],[{"header":{"parameterUnit":"m.s-1","parameterCategory":2,"la1":30.2991,"la2":30.254,"lo1":-89.0895,"lo2":-89.0444,"dy":0.0017,"dx":0.0017,"nx":28,"ny":28,"refTime":"2024-10-06T09:00:00:Z","depth":"4","parameterNumber":2,"parameterNumberName":"U-component_of_CURRENTS"},"data":[0,0,0,0,0,0,0,0,0,0,0,0,0,0,0,0,0,0,0,0,0,0,0,0,0,0,0,0,0,0,0,0,0,0,0,0,0,0,0,0,0,0,0,0,0,0,0,0,0,0,0,0,0,0,0,0,0,0,0.1623,0.1624,0,0.169,0.1691,0.1692,0.1747,0.1748,0.1749,0.175,0.1824,0.1825,0.1826,0,0,0,0,0,0,0,0,0,0,0,0,0,0.1534,0.1535,0.1623,0.1624,0.1625,0.169,0.1691,0.1692,0.1747,0.1748,0.1749,0.175,0.1823,0.1825,0.1826,0,0,0,0,0,0,0,0,0,0,0,0,0,0.1582,0.1535,0.1623,0.1662,0.1667,0.169,0.1691,0.1692,0.1747,0.1748,0.1749,0.175,0.1823,0.1824,0.1826,0.1815,0,0,0.1832,0.1833,0,0,0,0,0,0,0,0,0.1579,0.1585,0.1655,0.166,0.1665,0.1713,0.1687,0.1734,0.1747,0.1714,0.175,0.1751,0.1788,0.1793,0.18,0.1818,0.1821,0.1832,0.1833,0.1834,0.1835,0,0,0,0,0,0,0,0.1576,0.1582,0.1648,0.1656,0.1662,0.1673,0.1681,0.1696,0.1742,0.1717,0.1722,0.1732,0.179,0.1798,0.1802,0.1822,0.1832,0.1834,0.1835,0.1836,0.194,0.1942,0,0,0,0,0,0,0.1571,0.1579,0.1646,0.165,0.1626,0.1674,0.1683,0.1695,0.1742,0.1751,0.1731,0.1735,0.1794,0.18,0.1805,0.1888,0.1834,0.1836,0.1837,0.1939,0.1941,0.1942,0,0,0,0,0,0,0.1569,0.1576,0.1643,0.1618,0.1627,0.1675,0.1687,0.1696,0.1739,0.1753,0.1762,0.1771,0.1795,0.1802,0.1852,0.1887,0.1837,0.1838,0.1937,0.1939,0.1941,0.1993,0,0,0,0,0,0,0.1566,0.1575,0.1598,0.1617,0.1629,0.1679,0.1687,0.1696,0.1743,0.1749,0.1789,0.1795,0.1797,0.1849,0.1854,0.1889,0.184,0.1934,0.1938,0.1941,0.1989,0.1997,0.2004,0,0,0,0,0,0.1562,0.1582,0.1598,0.1608,0.1653,0.1681,0.1688,0.1723,0.1744,0.1767,0.1799,0.1796,0.1872,0.1852,0.1857,0.1894,0.1933,0.1937,0.194,0.1986,0.1996,0.2003,0,0,0,0,0,0,0.1555,0.159,0.1609,0.164,0.167,0.1691,0.1722,0.1742,0.1785,0.1804,0.1814,0.1822,0.188,0.188,0.1857,0.1934,0.1903,0.1908,0.1936,0.1945,0.1952,0.1952,0.1841,0,0,0,0,0,0.1563,0.1593,0.1621,0.1651,0.167,0.1702,0.1725,0.175,0.1782,0.1804,0.1832,0.1864,0.1892,0.1914,0.1937,0.1976,0.1979,0.2004,0.2011,0.2017,0.2022,0.2054,0.2064,0.1954,0.1954,0.1954,0,0,0.157,0.1594,0.1612,0.1653,0.1682,0.1711,0.172,0.1766,0.1799,0.1803,0.1869,0.1892,0.1909,0.1957,0.1982,0.1966,0.2053,0.2022,0.2027,0.2028,0.2059,0.2069,0.2079,0.1957,0.1957,0.1956,0,0,0.1583,0.162,0.1646,0.1674,0.1725,0.1743,0.1763,0.1806,0.1841,0.1894,0.1911,0.1957,0.2,0.202,0.2032,0.2092,0.2091,0.2107,0.2144,0.2175,0.2184,0.2192,0.222,0.223,0.211,0.211,0.211,0,0.1593,0.1628,0.1658,0.1689,0.172,0.176,0.1793,0.1827,0.1884,0.1914,0.1926,0.2009,0.2027,0.2079,0.2105,0.2108,0.2126,0.2108,0.2184,0.2192,0.2199,0.2225,0.2236,0.2113,0.2112,0.2112,0.2112,0,0.1614,0.1656,0.1676,0.1728,0.1762,0.1802,0.1846,0.1894,0.1941,0.1971,0.2048,0.2077,0.2125,0.2142,0.2144,0.221,0.2207,0.2189,0.2159,0.2213,0.2238,0.2247,0.2117,0.2116,0.2115,0.2114,0,0,0.1597,0.1677,0.1687,0.1719,0.1791,0.1814,0.1881,0.1941,0.1985,0.205,0.2107,0.2169,0.2195,0.2212,0.2228,0.2259,0.233,0.2255,0.2255,0.2277,0.2408,0.2281,0.2279,0.233,0.2332,0.2333,0.2408,0,0.161,0.1666,0.1708,0.1769,0.1801,0.1863,0.1914,0.1976,0.2033,0.2096,0.2149,0.2209,0.2218,0.2253,0.2289,0.2321,0.2358,0.2312,0.2357,0.2358,0.2234,0.2286,0.2339,0.2415,0.2417,0.2419,0.242,0,0.161,0.1652,0.1712,0.1791,0.1812,0.1858,0.1948,0.2001,0.2092,0.2139,0.2212,0.2251,0.2329,0.2317,0.2407,0.2382,0.2407,0.2422,0.2425,0.2292,0.2248,0.2348,0.2437,0.2436,0.2434,0.2433,0.2432,0,0.1564,0.165,0.1701,0.173,0.1823,0.1873,0.1931,0.2021,0.2075,0.2176,0.2227,0.2308,0.2373,0.2413,0.2471,0.2447,0.2555,0.2516,0.2426,0.2418,0.2486,0.2477,0.2576,0.2576,0.2575,0.2575,0.2575,0,0.1542,0.1585,0.169,0.1715,0.1781,0.1857,0.1932,0.2002,0.2104,0.2161,0.2253,0.2307,0.2405,0.2477,0.2497,0.2499,0.2582,0.2441,0.2428,0.2508,0.25,0.2494,0.2483,0.2578,0.2577,0.2577,0.2576,0,0.1477,0.1549,0.161,0.1721,0.1762,0.181,0.1935,0.1979,0.2093,0.2174,0.2215,0.2343,0.2425,0.2507,0.2585,0.2529,0.2539,0.2522,0.2625,0.2615,0.2372,0.2364,0.2402,0.2398,0.2395,0.2392,0.239,0,0.1444,0.1472,0.1599,0.1639,0.1698,0.1783,0.1836,0.1961,0.2007,0.2171,0.2196,0.2334,0.2401,0.2413,0.2501,0.2533,0.2511,0.2498,0.2406,0.2371,0.2355,0.2352,0.2348,0.2385,0.2384,0.2383,0.2382,0,0.1378,0.1441,0.1492,0.1576,0.1644,0.1701,0.1792,0.1814,0.1949,0.2075,0.2127,0.2175,0.2271,0.2326,0.2387,0.2398,0.2485,0.2463,0.2468,0.2382,0.235,0.2337,0.2337,0.2371,0.2372,0.2373,0.2374,0,0.1333,0.1351,0.143,0.1489,0.1571,0.1595,0.1652,0.171,0.1774,0.1952,0.1968,0.2111,0.2244,0.2259,0.2306,0.2319,0.2272,0.2186,0.2204,0.2218,0.2124,0.2055,0.198,0,0,0,0,0,0.1273,0.1283,0.1335,0.1389,0.1466,0.1509,0.161,0.1667,0.1799,0.179,0.1874,0.1948,0.2017,0.2094,0.2071,0.2228,0.2284,0.2191,0.2194,0.2308,0.2321,0.2228,0,0,0,0,0,0,0.1232,0.1277,0.1295,0.1293,0.1311,0.1372,0.1428,0.1517,0.1518,0.1667,0.1717,0.1836,0.1937,0.2015,0.2036,0.2061,0.2025,0.229,0.2285,0.23,0.2312,0.2323,0.2232,0,0,0,0,0]},{"header":{"parameterUnit":"m.s-1","parameterCategory":2,"la1":30.2991,"la2":30.254,"lo1":-89.0895,"lo2":-89.0444,"dy":0.0017,"dx":0.0017,"nx":28,"ny":28,"refTime":"2024-10-06T09:00:00:Z","depth":"4","parameterNumber":3,"parameterNumberName":"V-component_of_CURRENTS"},"data":[0,0,0,0,0,0,0,0,0,0,0,0,0,0,0,0,0,0,0,0,0,0,0,0,0,0,0,0,0,0,0,0,0,0,0,0,0,0,0,0,0,0,0,0,0,0,0,0,0,0,0,0,0,0,0,0,0,0,0.0076,0.0075,0,0.0029,0.0028,0.0027,-0.0002,-0.0002,-0.0002,-0.0002,-0.0059,-0.0061,-0.0062,0,0,0,0,0,0,0,0,0,0,0,0,0,0.0109,0.0109,0.0076,0.0075,0.0075,0.0029,0.0028,0.0027,-0.0002,-0.0002,-0.0002,-0.0002,-0.0059,-0.006,-0.0062,0,0,0,0,0,0,0,0,0,0,0,0,0,0.0081,0.0109,0.0076,0.0055,0.0053,0.0029,0.0028,0.0027,-0.0002,-0.0002,-0.0002,-0.0002,-0.0058,-0.006,-0.0062,-0.0074,0,0,-0.0069,-0.007,0,0,0,0,0,0,0,0,0.0083,0.008,0.0059,0.0057,0.0054,0.002,0.0019,-0.0007,-0.0002,0.0018,-0.0002,-0.0002,-0.0033,-0.0037,-0.0047,-0.0076,-0.0079,-0.0069,-0.0071,-0.0072,-0.0072,0,0,0,0,0,0,0,0.0085,0.0082,0.0056,0.0059,0.0056,0.0038,0.0034,0.0014,-0.0007,0.0017,0.0015,0.0011,-0.0035,-0.0045,-0.0049,-0.008,-0.0069,-0.0071,-0.0073,-0.0073,-0.0123,-0.0123,0,0,0,0,0,0,0.0094,0.0084,0.0058,0.0055,0.0069,0.0038,0.0033,0.003,-0.0007,-0.0012,0.0011,0.0009,-0.0041,-0.0046,-0.0051,-0.0057,-0.0072,-0.0074,-0.0075,-0.0123,-0.0123,-0.0123,0,0,0,0,0,0,0.0095,0.0092,0.006,0.0069,0.0063,0.0037,0.0035,0.003,0.002,-0.0011,-0.0017,0.0006,-0.0041,-0.0048,-0.0065,-0.006,-0.0075,-0.0077,-0.0123,-0.0123,-0.0123,-0.0075,0,0,0,0,0,0,0.0096,0.0093,0.0094,0.007,0.0063,0.005,0.0035,0.0029,0.0018,0.0016,-0.0016,-0.0022,-0.0042,-0.0062,-0.0068,-0.0063,-0.0078,-0.0123,-0.0123,-0.0123,-0.0076,-0.0073,-0.0071,0,0,0,0,0,0.0097,0.0101,0.0095,0.0091,0.0066,0.005,0.0046,0.0026,0.0018,0.0016,-0.0005,-0.0021,-0.0066,-0.0064,-0.007,-0.0066,-0.0123,-0.0123,-0.0123,-0.0078,-0.0074,-0.0071,0,0,0,0,0,0,0.0116,0.0098,0.009,0.0088,0.0073,0.0046,0.0043,0.0029,0.001,0.0009,-0.0021,-0.0028,-0.0042,-0.0062,-0.0059,-0.0081,-0.0097,-0.0099,-0.0061,-0.0057,-0.0055,-0.0035,-0.008,0,0,0,0,0,0.0122,0.0121,0.0099,0.0098,0.0093,0.0068,0.006,0.0047,0.0027,0.0018,-0.0005,-0.0028,-0.0048,-0.0058,-0.008,-0.0091,-0.011,-0.0094,-0.0091,-0.0088,-0.0077,-0.01,-0.0098,-0.0123,-0.0123,-0.0123,0,0,0.0129,0.0119,0.0118,0.0103,0.0089,0.0089,0.0063,0.0054,0.0055,0.0015,0.0008,-0.0019,-0.0049,-0.0062,-0.007,-0.0077,-0.0093,-0.0088,-0.0085,-0.0076,-0.01,-0.0097,-0.0095,-0.0123,-0.0123,-0.0123,0,0,0.0147,0.0135,0.0142,0.0132,0.0117,0.0104,0.0104,0.0079,0.0069,0.0056,0.003,0.0009,-0.0025,-0.0041,-0.0054,-0.0048,-0.0077,-0.006,-0.0027,-0.0049,-0.0047,-0.0045,-0.0072,-0.0073,-0.0057,-0.0057,-0.0057,0,0.0157,0.0164,0.0141,0.0146,0.0147,0.0115,0.0127,0.0111,0.0083,0.0083,0.006,0.0018,-0.0012,-0.0019,-0.002,-0.004,-0.006,-0.0036,-0.0044,-0.0042,-0.0041,-0.007,-0.0071,-0.0054,-0.0055,-0.0055,-0.0055,0,0.0179,0.0186,0.019,0.019,0.0186,0.0189,0.017,0.0163,0.0145,0.0129,0.0113,0.0068,0.0047,0.0028,0.0004,-0.0001,-0.0021,-0.0037,-0.0048,-0.0036,-0.0067,-0.0069,-0.0051,-0.0052,-0.0053,-0.0053,0,0,0.0202,0.0207,0.021,0.0225,0.0212,0.0216,0.0218,0.0217,0.023,0.0187,0.0197,0.0147,0.0121,0.0104,0.0068,0.0043,0.0022,0.0009,0.0006,-0.001,-0.0031,-0.0051,-0.0056,0.0004,0.0004,0.0004,-0.0058,0,0.023,0.0258,0.0251,0.0283,0.0299,0.028,0.0291,0.0284,0.0268,0.0266,0.0217,0.0206,0.0151,0.0141,0.0108,0.0048,0.0019,0.004,-0.0048,-0.005,-0.0063,-0.0058,0.0004,-0.006,-0.006,-0.0061,-0.0061,0,0.0258,0.0276,0.0313,0.0344,0.035,0.0362,0.0385,0.039,0.0375,0.0362,0.0336,0.0296,0.0255,0.0204,0.011,0.0126,0.0055,-0.0,-0.0004,-0.0038,-0.0074,-0.0076,-0.0067,-0.0066,-0.0066,-0.0065,-0.0065,0,0.0293,0.0324,0.0361,0.0368,0.039,0.0408,0.0421,0.042,0.0443,0.0424,0.0432,0.037,0.0344,0.0252,0.0129,0.0122,0.002,-0.0004,-0.009,-0.0093,-0.0077,-0.0078,-0.0069,-0.0068,-0.0068,-0.0068,-0.0068,0,0.0327,0.0359,0.0382,0.0402,0.0458,0.0454,0.0506,0.0507,0.0521,0.0552,0.0486,0.0485,0.0354,0.0276,0.0159,0.0027,0.004,-0.008,-0.0106,-0.0058,-0.0056,-0.008,-0.008,-0.007,-0.007,-0.0069,-0.0069,0,0.0358,0.037,0.0419,0.0455,0.0475,0.0513,0.057,0.0606,0.0606,0.0644,0.0642,0.0577,0.0469,0.0329,0.0175,0.0072,-0.0056,-0.0109,-0.0045,-0.0068,-0.0161,-0.0159,-0.0201,-0.0202,-0.0203,-0.0204,-0.0205,0,0.0375,0.0402,0.0462,0.0499,0.0519,0.0576,0.062,0.0646,0.0685,0.0695,0.0716,0.0631,0.0563,0.0341,0.018,-0.0038,-0.0078,-0.0148,-0.0158,-0.0151,-0.0173,-0.0169,-0.0165,-0.0206,-0.0207,-0.0207,-0.0207,0,0.0411,0.043,0.047,0.0546,0.0601,0.0668,0.0729,0.0766,0.0792,0.08,0.0775,0.0656,0.0533,0.0346,0.0174,0.0014,-0.0102,-0.0158,-0.0158,-0.0168,-0.0158,-0.0178,-0.0173,-0.021,-0.021,-0.021,-0.0209,0,0.0438,0.0471,0.0523,0.059,0.0663,0.073,0.0763,0.0802,0.0839,0.0843,0.083,0.069,0.0611,0.0373,0.0215,0.0055,0.0008,-0.0053,-0.0058,-0.0057,-0.0005,0.0029,0.0017,0,0,0,0,0,0.0462,0.05,0.0564,0.0635,0.0706,0.075,0.0825,0.0849,0.0875,0.0867,0.0851,0.0732,0.0497,0.0399,0.0237,0.0182,-0.0028,-0.0015,-0.0102,-0.0229,-0.0225,-0.0192,0,0,0,0,0,0,0.0477,0.0537,0.0565,0.0657,0.071,0.0794,0.0841,0.0862,0.0857,0.0856,0.074,0.068,0.0458,0.0591,0.0232,0.0183,0.0102,-0.0121,-0.0125,-0.0231,-0.0227,-0.0224,-0.0189,0,0,0,0,0]}]]